Terminal Aerodrome Forecast
Issued by NWS

Current Version | Previous Version | Text Only | Print | Product List | Glossary On
Versions: 1 2 3 4 5 6 7 8 9 10 11 12 13 14 15 16 17 18 19 20 21 22 23 24
952 FTUS41 KGYX 261129 CCA TAFPSM TAF COR KPSM 261129Z 2611/2712 03012G20KT 3SM -SHRA OVC008 FM261500 36009KT P6SM VCSH OVC008 FM261800 34009KT P6SM VCSH OVC015 PROB30 2621/2624 4SM -SHRA OVC012 FM270000 34008KT P6SM OVC025 FM270500 33005KT P6SM BKN040=

USA.gov is the U.S. government's official web portal to all federal, state and local government web resources and services.